Regional Weather Roundup
Issued by NWS Sterling, VA

Home | Current Version | Previous Version | Graphics & Text | Print | Product List | Glossary On
Versions: 1 2 3 4 5 6 7 8 9 10 11 12 13 14 15 16 17 18 19 20 21 22 23 24 25 26 27 28 29 30 31 32 33 34 35 36 37 38 39 40 41 42 43 44 45 46 47 48 49 50
000
ASUS41 KLWX 011010
RWRLWX

REGIONAL WEATHER ROUNDUP
NATIONAL WEATHER SERVICE BALTIMORE MD/WASHINGTON DC
500 AM EST SUN MAR 01 2015

Note: "FAIR" indicates few or no clouds below 12,000 feet
with no significant weather and/or obstructions to visibility.
 TC=TEMPERATURE CELSIUS

 * =Non NWS site. Station does not report precipitation (e.g. rain,
    snow, etc.), thunder, or fog.

DCZ001-MDZ009-015-VAZ040>042-051-053>054-011100-
WASHINGTON METRO

CITY           SKY/WX    TMP DP  RH WIND       PRES   REMARKS
WASHINGTON NAT CLOUDY    27  14  58 S6        30.66F
DULLES         CLOUDY    23  12  62 S3        30.63F
ANDREWS AFB    CLOUDY    23  12  63 S5        30.68S
FT BELVOIR     MOCLDY    24  15  66 SE5       30.66F
QUANTICO       CLOUDY    26  14  60 SE8       30.68S WCI  18
COLLEGE PARK*  CLOUDY    25  18  74 CALM      30.66F
LEESBURG*      CLOUDY    25  18  74 CALM      30.63F
MANASSAS*      CLOUDY    25  18  74 CALM      30.64F
GAITHERSBURG*  MOCLDY    21   7  53 CALM      30.65F

$$

MDZ006>007-011-014-011100-
BALTIMORE METRO

CITY           SKY/WX    TMP DP  RH WIND       PRES   REMARKS
BWI AIRPORT    CLOUDY    21  12  68 CALM      30.65F
MD SCIENCE CTR   N/A      1  32 100 MISG      30.66F
MARTIN STATE   PTCLDY    21  14  73 CALM      30.69F
ANNAPOLIS      CLOUDY    23  17  78 CALM      30.66F
FORT MEADE*    MOCLDY    19  12  73 CALM      30.68F

$$

MDZ012-015-019>023-011100-
MARYLAND EASTERN SHORE

CITY           SKY/WX    TMP DP  RH WIND       PRES   REMARKS
OCEAN CITY     MOCLDY    16  12  84 CALM      30.69S
SALISBURY      MOCLDY    18  12  77 CALM      30.69S
BAY BRIDGE AP*   N/A     25  18  74 E5        30.68S
CAMBRIDGE*     MOCLDY    23  16  74 CALM      30.68R
EASTON*        MOCLDY    23  18  79 CALM      30.71F

$$

MDZ017>025-011100-
SOUTHERN MARYLAND

CITY           SKY/WX    TMP DP  RH WIND       PRES   REMARKS
PATUXENT RIVER MOCLDY    22  16  78 CALM      30.67S
ST INIGOES     MOCLDY    18  12  77 CALM      30.67S
LEONARDTOWN*   MOCLDY    21  18  86 CALM      30.68S

$$

MDZ003>005-011100-
NORTH CENTRAL MARYLAND

CITY           SKY/WX    TMP DP  RH WIND       PRES   REMARKS
FREDERICK*     CLOUDY    21  10  63 CALM      30.66F
HAGERSTOWN APT CLOUDY    25   7  46 CALM      30.59S
WESTMINSTER*   MOCLDY    21   9  58 SE5       30.59F

$$

MDZ501>502-011100-
WESTERN MARYLAND

CITY           SKY/WX    TMP DP  RH WIND       PRES   REMARKS
OAKLAND*       CLOUDY    21   9  58 SE6       30.38S
CUMBERLAND*    MOCLDY    27  10  50 N3        30.59F

$$

VAZ025>031-011100-
SHENANDOAH VALLEY

CITY           SKY/WX    TMP DP  RH WIND       PRES   REMARKS
WINCHESTER*    CLOUDY    27   9  46 CALM      30.57R
FRONT ROYAL*   CLOUDY    23  12  63 CALM      30.56S
LURAY*         CLOUDY    30  18  59 S5        30.56R
NEW MARKET*    CLOUDY    22  15  74 CALM      30.55R
STAUNTON*      CLOUDY    25  13  62 SW3       30.56R
WAYNESBORO*    CLOUDY    23  12  63 CALM      30.54R

$$

WVZ021-048>050-054>055-011100-
EASTERN WEST VIRGINIA PANHANDLE

CITY           SKY/WX    TMP DP  RH WIND       PRES   REMARKS
MARTINSBURG    CLOUDY    25  11  55 N3        30.59S
PETERSBURG*    NOT AVBL

$$

VAZ036>039-050-011100-
CENTRAL FOOTHILLS

CITY           SKY/WX    TMP DP  RH WIND       PRES   REMARKS
CHARLOTTESVILL PTCLDY    24  13  62 S3        30.60F
CULPEPER*      CLOUDY    25  18  74 CALM      30.63F
ORANGE*        CLOUDY    27  18  69 CALM      30.63F
GORDONSVILLE*  CLOUDY    23  15  71 CALM      30.62F
WARRENTON*     CLOUDY    26  22  84 CALM      30.62F

$$

VAZ055>057-011100-
NORTH AND CENTRAL PIEDMONT

CITY           SKY/WX    TMP DP  RH WIND       PRES   REMARKS
FREDERICKSBRG* CLOUDY    26  17  70 CALM      30.66S
STAFFORD*      CLOUDY    24  13  63 SE3       30.70S

$$

NCZ024-NYZ072-PAZ021-071-VAZ022-071-011100-
OTHER REGIONAL OBSERVATIONS

CITY           SKY/WX    TMP DP  RH WIND       PRES   REMARKS
NEW YORK CITY  PTCLDY    25   5  42 NW5       30.70R
PHILADELPHIA   CLOUDY    24  14  65 W3        30.70F
PITTSBURGH     LGT SNOW  21  20  96 SE5       30.41F VSB 1
ROANOKE        CLOUDY    28  11  48 CALM      30.58F
RICHMOND       CLOUDY    25  16  68 CALM      30.65S
RALEIGH        FRZ RAIN  29  20  69 NE7       30.60S FOG

$$

ANZ530>537-011100-
MARINE OBSERVATIONS

STATION/POSITION TIME  TEMP    WIND        PRES
                       AIR SEA DIR/SP/G
                 (UTC) (F)     (DEG/KT/KT) (MB)
THOMAS PT LIGHT  1000   27 31  130/  6/  7 1039.4F
BALT KEY BRIDGE  0900   23      30/  3/  4 1039.1F
COVE POINT       0900   25      CALM  /  1 1038.4F
LEWISETTA        0900   21 32     CALM     1038.4F
SOLOMONS ISLAND  0900      33                N/A

$$



USA.gov is the U.S. government's official web portal to all federal, state and local government web resources and services.